Location: Augustenthal
(51.7167°N, 10.2833°E)
Time: 06:05:12
(UTC+00:00)

Cosmos 1898 Rocket - Pass Details

Date: 18 May 2021
Orbit: 753 x 784 km, 74.0° (Epoch: 20 June)

Event Time Altitude Azimuth Distance (km) Brightness Sun altitude
Rises 20:07:37 0° 185° (S) 3,247 6.4 -7.6°
Reaches altitude 10° 20:10:02 10° 180° (S) 2,327 5.6 -7.9°
Maximum altitude 20:15:07 49° 107° (ESE) 1,000 3.8 -8.4°
Drops below altitude 10° 20:20:16 10° 33° (NNE) 2,353 6.2 -9.0°
Sets 20:22:43 0° 29° (NNE) 3,286 7.1 -9.2°
